This demonstration page uses our WeatherBlox Daily Observations layout. Learn more.

Hourly Observations for October 22, 2020

Temp ( °F °C ) Dew Point ( °F °C ) Humidity (%) Winds ( mph kmh ) Pressure ( in mb ) Visibility ( mi km ) Precip ( " mm )
12:53 am 00:53 Cloudy 36 2.2 33 0.6 89 89 N 14 22 29.79 1009 10 16.0934 0 0
1:53 am 01:53 Cloudy with Light Rain 33 0.6 31 -0.6 92 92 N 13 20 29.82 1010 4 6.43736 0.001 0.001
2:53 am 02:53 Cloudy with Mist and Fog 33 0.6 31 -0.6 92 92 N 8 13 29.83 1010 4 6.43736 0.001 0.001
3:53 am 03:53 Cloudy with Mist and Fog 32 0 31 -0.6 96 96 NNE 8 13 29.82 1010 5 8.0467 0 0
4:53 am 04:53 Cloudy 33 0.6 31 -0.6 92 92 NNE 8 13 29.83 1010 10 16.0934 0 0
5:48 am 05:48 Cloudy 32 0 30 -1 93 93 N 6 9 30.01 1016 8 12.87472 0 0
5:53 am 05:53 Cloudy 32 0 30 -1.1 92 92 N 7 11 29.88 1012 8 12.87472 0 0
6:53 am 06:53 Cloudy 32 0 30 -1.1 92 92 N 8 13 29.91 1013 10 16.0934 0 0
7:53 am 07:53 Cloudy 32 0 30 -1.1 92 92 N 10 17 29.96 1015 10 16.0934 0 0
8:13 am 08:13 Cloudy 32 0 30 -1.1 92 92 NNW 13 20 30.08 1019 10 16.0934 0 0
8:41 am 08:41 Cloudy 31 -0.6 29 -1.7 92 92 NNW 12 19 30.11 1020 10 16.0934 0 0
8:53 am 08:53 Cloudy 31 -0.6 29 -1.7 92 92 NNW 8 13 30.01 1016 10 16.0934 0 0
9:51 am 09:51 Cloudy 34 1 30 -1 87 87 NNW 8 13 30.1 1019 10 16.0934 0 0
9:53 am 09:53 Cloudy 33 0.6 30 -1.1 89 89 NNW 8 13 30.04 1017 10 16.0934 0 0
10:53 am 10:53 Cloudy 36 2.2 31 -0.6 82 82 NNE 12 19 30.06 1018 10 16.0934 0 0
11:53 am 11:53 Cloudy 36 2.2 29 -1.7 76 76 NNE 13 20 30.08 1019 10 16.0934 0 0
12:53 pm 12:53 Cloudy 37 2.8 29 -1.7 73 73 N 16 26 30.09 1019 10 16.0934 0 0
1:53 pm 13:53 Cloudy 37 2.8 28 -2.2 70 70 N 16 26 30.13 1020 10 16.0934 0 0
2:53 pm 14:53 Cloudy 36 2.2 26 -3.3 67 67 N 15 24 30.16 1021 10 16.0934 0 0
3:53 pm 15:53 Cloudy 35 1.7 27 -2.8 72 72 NNE 13 20 30.19 1023 10 16.0934 0 0
4:20 pm 16:20 Cloudy 34 1.1 25 -3.9 70 70 NNW 22 35 30.25 1025 10 16.0934 0.001 0.001
4:53 pm 16:53 Cloudy 32 0 25 -3.9 75 75 NNW 21 33 30.24 1024 10 16.0934 0.001 0.001
5:53 pm 17:53 Cloudy with Light Wintry Mix 31 -0.6 23 -5 72 72 NNW 17 28 30.31 1027 10 16.0934 0.001 0.001
6:53 pm 18:53 Cloudy with Light Wintry Mix 30 -1.1 23 -5 75 75 NNW 15 24 30.35 1028 10 16.0934 0.001 0.001
7:53 pm 19:53 Cloudy with Light Snow 28 -2.2 22 -5.6 78 78 NNW 17 28 30.38 1029 6 9.65604 0.001 0.001
8:15 pm 20:15 Cloudy with Light Snow 28 -2.2 24 -4.4 85 85 NW 13 20 30.45 1031 4 6.43736 0.001 0.001
8:53 pm 20:53 Cloudy with Light Snow 27 -2.8 24 -4.4 89 89 NW 12 19 30.41 1030 3 4.82802 0.01 0.254
9:00 pm 21:00 Cloudy with Light Snow 27 -3 25 -4 93 93 NW 13 20 30.48 1032 2.5 4.02335 0 0
9:14 pm 21:14 Cloudy with Light Snow 27 -3 25 -4 93 93 NW 14 22 30.48 1032 1.5 2.41401 0 0
9:53 pm 21:53 Cloudy with Light Snow 26 -3.3 24 -4.4 92 92 undefined N/A 30.42 1030 1.75 2.816345 0.02 0.508
10:51 pm 22:51 Cloudy with Light Snow 27 -3 25 -4 93 93 WNW 8 13 30.5 1033 2 3.21868 0.02 0.508
10:53 pm 22:53 Cloudy with Light Snow 26 -3.3 24 -4.4 92 92 WNW 9 15 30.43 1030 2 3.21868 0.02 0.508
11:17 pm 23:17 Cloudy with Light Snow 26 -3.3 24 -4.4 92 92 NW 12 19 30.53 1034 2 3.21868 0.01 0.254
11:29 pm 23:29 Cloudy with Light Snow 26 -3.3 24 -4.4 92 92 NW 9 15 30.53 1034 2 3.21868 0.01 0.254
11:45 pm 23:45 Cloudy with Light Snow 26 -3.3 23 -5 88 88 NW 12 19 30.53 1034 3 4.82802 0.01 0.254
11:53 pm 23:53 Cloudy with Light Snow 26 -3.3 23 -5 88 88 NNW 10 17 30.44 1031 3 4.82802 0.01 0.254

Powered by AerisWeather